DW2613 Weather Reports


time (UTC)temp
F
wind
direction
speed
knots
gust
knots
rain 1hr
in
rain 24hr
in
rain mn
in
humidity
%
barometer
mb
20260505035901 64 217 1.7 9.6 0.00 0.00 0.00 80 1012.1
20260505034906 64 148 2.6 9.6 0.00 0.00 0.00 80 1012.0
20260505034521 64 200 3.5 10.4 0.00 0.00 0.00 79 1012.2
20260505033905 64 301 2.6 10.4 0.00 0.00 0.00 80 1012.1
20260505033004 64 246 3.5 11.3 0.00 0.00 0.00 79 1012.2
20260505032918 64 188 1.7 10.4 0.00 0.00 0.00 80 1012.0
20260505031912 64 155 1.7 8.7 0.00 0.00 0.00 80 1012.0
20260505031504 63 105 3.5 9.6 0.00 0.00 0.00 80 1012.3
20260505030332 63 169 0.9 5.2 0.00 0.00 0.00 79 1012.1
20260505030008 63 209 1.7 5.2 0.00 0.00 0.00 78 1012.2
20260505025319 63 190 0.0 4.3 0.00 0.00 0.00 78 1012.0
20260505024515 62 217 0.9 5.2 0.00 0.00 0.00 79 1012.2
20260505024329 62 212 0.0 4.3 0.00 0.00 0.00 80 1011.9
20260505023331 62 200 0.0 7.0 0.00 0.00 0.00 81 1011.9
20260505023015 62 190 0.0 8.7 0.00 0.00 0.00 80 1012.2
20260505022330 62 225 0.0 7.0 0.00 0.00 0.00 81 1011.8
20260505021502 62 260 0.0 5.2 0.00 0.00 0.00 81 1012.1
20260505021350 62 260 0.0 3.5 0.00 0.00 0.00 81 1011.8
20260505020354 62 253 0.0 3.5 0.00 0.00 0.00 81 1011.7
20260505020003 62 175 0.0 4.3 0.00 0.00 0.00 80 1012.1
20260505015334 63 167 0.0 3.5 0.00 0.00 0.00 80 1011.8
20260505014508 62 161 1.7 5.2 0.00 0.00 0.00 78 1012.2
20260505013218 63 176 1.7 8.7 0.00 0.00 0.00 78 1012.0
20260505013012 63 190 2.6 8.7 0.00 0.00 0.00 77 1012.3
20260505012155 63 165 1.7 8.7 0.00 0.00 0.00 78 1011.9
20260505011542 63 163 1.7 10.4 0.00 0.00 0.00 76 1012.1
20260505011151 64 175 1.7 7.0 0.00 0.00 0.00 76 1011.7
20260505010146 64 184 2.6 7.0 0.00 0.00 0.00 75 1011.7
20260505010014 64 213 2.6 9.6 0.00 0.00 0.00 73 1012.0
20260505005157 64 168 2.6 7.0 0.00 0.00 0.00 72 1011.4
20260505004508 64 153 3.5 7.0 0.00 0.00 0.00 71 1011.7
20260505003815 65 181 1.7 6.1 0.00 0.00 0.00 70 1011.4
20260505003012 64 194 3.5 7.8 0.00 0.00 0.00 69 1011.8
20260505002759 65 178 0.9 5.2 0.00 0.00 0.00 69 1011.4
20260505001753 65 180 0.9 6.1 0.00 0.00 0.00 68 1011.3
20260505001518 65 140 0.9 7.8 0.00 0.00 0.00 68 1011.7
20260505000026 65 150 1.7 6.1 0.00 0.00 0.00 66 1011.7
20260504235631 66 130 0.9 9.6 0.00 0.00 0.00 66 1011.3
20260504234640 67 165 1.7 9.6 0.00 0.00 0.00 64 1011.1
20260504234506 67 232 2.6 13.0 0.00 0.00 0.00 63 1011.6
20260504233636 68 164 0.9 5.2 0.00 0.00 0.00 59 1011.0
20260504233008 69 167 1.7 7.0 0.00 0.00 0.00 54 1011.5
20260504232652 69 198 0.9 7.8 0.00 0.00 0.00 53 1011.0
20260504231622 70 171 0.9 7.8 0.00 0.00 0.00 50 1011.0
20260504231515 70 215 0.9 9.6 0.00 0.00 0.00 50 1011.4
20260504230554 71 236 0.9 5.2 0.00 0.00 0.00 50 1011.0
20260504230017 70 186 0.9 7.0 0.00 0.00 0.00 51 1011.4
20260504224520 70 199 0.9 10.4 0.00 0.00 0.00 52 1011.5
20260504224342 71 281 1.7 8.7 0.00 0.00 0.00 52 1011.1
20260504223321 72 236 2.6 7.0 0.00 0.00 0.00 51 1011.1
20260504223006 71 144 2.6 7.0 0.00 0.00 0.00 49 1011.5
20260504222254 72 223 1.7 7.8 0.00 0.00 0.00 50 1011.1
20260504221509 71 227 0.9 10.4 0.00 0.00 0.00 49 1011.6
20260504221243 72 244 1.7 7.8 0.00 0.00 0.00 49 1011.2
20260504220256 72 246 1.7 7.0 0.00 0.00 0.00 48 1011.1
20260504220016 71 163 2.6 9.6 0.00 0.00 0.00 47 1011.7
20260504214522 72 206 1.7 9.6 0.00 0.00 0.00 49 1011.8
20260504214211 72 200 1.7 11.3 0.00 0.00 0.00 51 1011.3
20260504213027 72 211 3.5 13.0 0.00 0.00 0.00 47 1011.9
20260504212109 73 163 2.6 11.3 0.00 0.00 0.00 46 1011.4
20260504211510 72 142 3.5 13.0 0.00 0.00 0.00 44 1011.9
20260504210016 73 165 2.6 10.4 0.00 0.00 0.00 44 1011.9
20260504205909 74 153 2.6 7.8 0.00 0.00 0.00 44 1011.4
20260504204840 74 263 2.6 7.0 0.00 0.00 0.00 42 1011.3
20260504204515 74 160 2.6 8.7 0.00 0.00 0.00 43 1011.8
20260504203830 74 200 1.7 7.0 0.00 0.00 0.00 45 1011.4
20260504203021 73 215 1.7 7.8 0.00 0.00 0.00 43 1011.9
20260504201526 73 350 1.7 9.6 0.00 0.00 0.00 45 1012.2
20260504200545 73 218 2.6 7.0 0.00 0.00 0.00 43 1011.8
20260504200012 73 315 2.6 11.3 0.00 0.00 0.00 45 1012.2
20260504195600 73 256 3.5 9.6 0.00 0.00 0.00 45 1011.9
20260504194620 73 162 3.5 9.6 0.00 0.00 0.00 45 1012.1
20260504194519 72 210 3.5 10.4 0.00 0.00 0.00 45 1012.5
20260504193614 73 188 1.7 8.7 0.00 0.00 0.00 46 1012.2
20260504193018 72 223 2.6 8.7 0.00 0.00 0.00 45 1012.6
20260504192637 73 63 2.6 7.0 0.00 0.00 0.00 44 1012.3
20260504191522 72 248 3.5 9.6 0.00 0.00 0.00 39 1012.8
20260504190444 72 252 2.6 7.8 0.00 0.00 0.00 38 1012.6
20260504190028 71 214 3.5 9.6 0.00 0.00 0.00 37 1012.9
20260504185447 72 146 2.6 7.8 0.00 0.00 0.00 37 1012.8
20260504184511 71 207 2.6 8.7 0.00 0.00 0.00 41 1013.1
20260504184501 71 207 1.7 7.0 0.00 0.00 0.00 42 1012.9
20260504183457 71 235 2.6 7.0 0.00 0.00 0.00 43 1013.0
20260504183002 71 165 3.5 7.8 0.00 0.00 0.00 39 1013.2
20260504182446 71 150 1.7 7.0 0.00 0.00 0.00 44 1013.0
20260504181507 70 222 2.6 8.7 0.00 0.00 0.00 40 1013.5
20260504181435 71 200 1.7 7.0 0.00 0.00 0.00 40 1013.2
20260504180452 70 254 2.6 7.0 0.00 0.00 0.00 43 1013.3
20260504180005 70 298 3.5 8.7 0.00 0.00 0.00 44 1013.6
20260504175426 70 225 2.6 7.8 0.00 0.00 0.00 43 1013.3
20260504174508 69 225 1.7 9.6 0.00 0.00 0.00 40 1013.7
20260504174439 70 163 1.7 7.8 0.00 0.00 0.00 40 1013.5
20260504173416 70 203 1.7 5.2 0.00 0.00 0.00 38 1013.5
20260504173006 69 174 1.7 7.8 0.00 0.00 0.00 38 1013.9
20260504171503 68 187 2.6 8.7 0.00 0.00 0.00 41 1014.0
20260504171234 69 145 2.6 7.0 0.00 0.00 0.00 47 1013.8
20260504170230 69 189 1.7 6.1 0.00 0.00 0.00 44 1014.0
20260504150932 63 286 2.6 7.8 0.00 0.00 0.00 57 1014.9
20260504140906 61 273 3.5 8.7 0.00 0.00 0.00 62 1015.1
20260504130636 61 257 2.6 7.8 0.00 0.00 0.00 63 1015.5
20260504110414 57 272 2.6 8.7 0.00 0.00 0.00 69 1016.1
20260504081520 56 165 1.7 9.6 0.00 0.00 0.00 78 1016.2
20260504081333 56 188 1.7 7.8 0.00 0.00 0.00 78 1016.4
20260504080317 56 184 1.7 6.1 0.00 0.00 0.00 77 1016.5
20260504050018 54 126 0.9 6.1 0.00 0.00 0.00 67 1016.5
20260504045928 55 163 0.9 5.2 0.00 0.00 0.00 67 1016.7
20260504044908 55 90 0.0 3.5 0.00 0.00 0.00 67 1016.7
20260504044520 54 90 0.9 4.3 0.00 0.00 0.00 66 1016.5
20260504043859 55 185 0.0 3.5 0.00 0.00 0.00 67 1016.6
20260504043032 54 212 0.9 4.3 0.00 0.00 0.00 66 1016.3
20260504041754 55 271 0.9 4.3 0.00 0.00 0.00 68 1016.6
20260504041524 54 136 1.7 5.2 0.00 0.00 0.00 68 1016.4
20260504040731 55 220 0.9 7.0 0.00 0.00 0.00 67 1016.5
20260504040014 54 247 1.7 8.7 0.00 0.00 0.00 65 1016.3